Wilmington, DE

11:53 PM EDT on March 26, 2017 (GMT -0400)
New Castle County

Weather History for KILG - August, 2014

Change the Weather History Date:

Monday, August 4, 2014

  Actual Average Record
Temperature  
Mean Temperature 77 °F 76 °F  
Max Temperature 85 °F 85 °F 96 °F (1995)
Min Temperature 68 °F 67 °F 53 °F (1964)
Degree Days  
Heating Degree Days 0 0  
Month to date heating degree days 0 0  
Since 1 June heating degree days 2 15  
Since 1 July heating degree days 0 0  
Cooling Degree Days 12 11  
Month to date cooling degree days 36 46  
Year to date cooling degree days 695 723  
Since 1 June cooling degree days 628 644  
Growing Degree Days 26 (Base 50)    
Moisture  
Dew Point 67 °F    
Average Humidity 73    
Maximum Humidity 97    
Minimum Humidity 48    
Precipitation  
Precipitation 0.00 in 0.12 in 2.00 in (1915)
Month to date precipitation 0.88 0.48  
Year to date precipitation 34.18 25.99  
Snow  
Snow 0.00 in 0.00 in 0.00 in (1894)
Month to date snowfall 0.0 0.0  
Since 1 June snowfall 0.0 0.0  
Since 1 July snowfall 0.0 0.0  
Snow Depth 0.00 in    
Sea Level Pressure  
Sea Level Pressure 30.07 in    
Wind  
Wind Speed 4 mph (WNW)    
Max Wind Speed 12 mph    
Max Gust Speed 13 mph    
Visibility 8 miles    
Events Fog , Rain    
T = Trace of Precipitation, MM = Missing Value Source: NWS Daily Summary

Daily Weather History Graph

Daily Weather History Graph

Search for Another Location

Airport or City:

Trip Planner

Search our weather history database for the weather conditions in past years. The results will help you decide how hot, cold, wet, or windy it might be!

Date:

Astronomy

Aug. 04, 2014 Rise Set
Actual Time 6:04 AM EDT 8:12 PM EDT
Civil Twilight 5:34 AM EDT 8:41 PM EDT
Nautical Twilight 4:57 AM EDT 9:18 PM EDT
Astronomical Twilight 4:17 AM EDT 9:57 PM EDT
Moon 2:21 PM EDT (8/4) 12:09 AM EDT (8/4)
Length of Visible Light 15h 07m
Length of Day
14h 07m
First Quarter, 57% of the Moon is Illuminated
Aug 4
First Quarter
Aug 10
Full
Aug 17
Last Quarter
Aug 25
New
Sep 2
First Quarter

Hourly Weather History & Observations

Time (EDT) Temp. Heat Index Dew Point Humidity Pressure Visibility Wind Dir Wind Speed Gust Speed Precip Events Conditions
12:12 AM 71.1 °F - 69.1 °F 93% 30.07 in 10.0 mi South 4.6 mph - N/A   Mostly Cloudy
12:24 AM 71.1 °F - 70.0 °F 96% 30.06 in 8.0 mi South 3.5 mph - 0.01 in Rain Light Rain
12:51 AM 72.0 °F - 70.0 °F 93% 30.07 in 10.0 mi South 5.8 mph - 0.01 in   Overcast
1:25 AM 71.1 °F - 69.1 °F 93% 30.07 in 10.0 mi South 3.5 mph - N/A   Mostly Cloudy
1:31 AM 71.1 °F - 69.1 °F 93% 30.06 in 10.0 mi South 3.5 mph - N/A   Mostly Cloudy
1:51 AM 71.6 °F - 69.8 °F 94% 30.06 in 10.0 mi Calm Calm - N/A   Mostly Cloudy
2:00 AM 72.0 °F - 69.1 °F 91% 30.07 in 10.0 mi Calm Calm - N/A   Overcast
2:51 AM 71.6 °F - 69.8 °F 94% 30.06 in 10.0 mi WSW 3.5 mph - N/A   Overcast
3:25 AM 71.1 °F - 69.1 °F 93% 30.05 in 9.0 mi Calm Calm - N/A   Mostly Cloudy
3:38 AM 70.0 °F - 69.1 °F 97% 30.06 in 8.0 mi WNW 4.6 mph - N/A   Scattered Clouds
3:51 AM 69.1 °F - 68.0 °F 96% 30.06 in 2.0 mi NNW 3.5 mph - N/A   Scattered Clouds
3:56 AM 69.1 °F - 68.0 °F 96% 30.06 in 4.0 mi NNW 3.5 mph - N/A   Mostly Cloudy
4:09 AM 70.0 °F - 69.1 °F 97% 30.06 in 4.0 mi Calm Calm - N/A   Mostly Cloudy
4:38 AM 70.0 °F - 69.1 °F 97% 30.05 in 4.0 mi Calm Calm - N/A   Mostly Cloudy
4:51 AM 69.1 °F - 68.0 °F 96% 30.05 in 4.0 mi Calm Calm - N/A   Mostly Cloudy
5:01 AM 70.0 °F - 68.0 °F 93% 30.05 in 1.8 mi Calm Calm - N/A   Mostly Cloudy
5:22 AM 69.1 °F - 68.0 °F 96% 30.05 in 0.5 mi Calm Calm - N/A Fog Fog
5:51 AM 69.8 °F - 68.0 °F 94% 30.06 in 0.5 mi NW 5.8 mph - N/A Fog Fog
6:05 AM 69.1 °F - 69.1 °F 100% 30.06 in 0.2 mi NW 4.6 mph - N/A Fog Fog
6:26 AM 69.1 °F - 68.0 °F 96% 30.07 in 1.0 mi NNW 4.6 mph - N/A   Overcast
6:32 AM 69.1 °F - 68.0 °F 96% 30.07 in 3.0 mi Variable 3.5 mph - N/A   Overcast
6:43 AM 68.0 °F - 66.9 °F 96% 30.07 in 4.0 mi NNW 4.6 mph - N/A   Mostly Cloudy
6:51 AM 68.0 °F - 66.9 °F 96% 30.07 in 6.0 mi NNW 3.5 mph - N/A   Mostly Cloudy
7:01 AM 69.8 °F - 68.0 °F 94% 30.07 in 6.0 mi West 3.5 mph - N/A   Partly Cloudy
7:51 AM 71.1 °F - 66.9 °F 87% 30.08 in 10.0 mi NW 4.6 mph - N/A   Clear
8:07 AM 71.1 °F - 66.9 °F 87% 30.08 in 10.0 mi NW 6.9 mph - N/A   Partly Cloudy
8:51 AM 70.0 °F - 66.0 °F 87% 30.10 in 8.0 mi WNW 10.4 mph - N/A   Scattered Clouds
9:51 AM 72.0 °F - 64.9 °F 78% 30.11 in 9.0 mi NNW 8.1 mph - N/A   Partly Cloudy
10:51 AM 75.9 °F - 66.0 °F 71% 30.11 in 10.0 mi NW 6.9 mph - N/A   Clear
11:42 AM 78.1 °F - 66.0 °F 66% 30.11 in 10.0 mi Calm Calm - N/A   Mostly Cloudy
11:51 AM 78.1 °F - 66.0 °F 66% 30.11 in 10.0 mi Calm Calm - N/A   Scattered Clouds
12:51 PM 82.0 °F 83.8 °F 64.9 °F 56% 30.09 in 10.0 mi NNW 6.9 mph - N/A   Scattered Clouds
1:51 PM 81.0 °F 83.0 °F 66.0 °F 60% 30.08 in 10.0 mi North - - N/A   Partly Cloudy
2:51 PM 82.0 °F 83.8 °F 64.9 °F 56% 30.08 in 10.0 mi West 8.1 mph - N/A   Mostly Cloudy
3:51 PM 82.9 °F 84.4 °F 64.0 °F 53% 30.06 in 10.0 mi NW 4.6 mph - N/A   Clear
4:51 PM 82.9 °F 83.7 °F 62.1 °F 49% 30.06 in 10.0 mi Variable 4.6 mph - N/A   Partly Cloudy
5:51 PM 84.0 °F 84.9 °F 63.0 °F 49% 30.05 in 10.0 mi NW 4.6 mph - N/A   Partly Cloudy
6:51 PM 82.0 °F 83.4 °F 64.0 °F 54% 30.05 in 10.0 mi WNW 5.8 mph - N/A   Partly Cloudy
7:51 PM 78.1 °F - 66.0 °F 66% 30.06 in 10.0 mi West 4.6 mph - N/A   Clear
8:51 PM 75.9 °F - 66.0 °F 71% 30.06 in 10.0 mi WSW 3.5 mph - N/A   Clear
9:51 PM 73.4 °F - 66.2 °F 78% 30.08 in 10.0 mi WSW 3.5 mph - N/A   Clear
10:51 PM 73.0 °F - 66.9 °F 81% 30.08 in 10.0 mi West 4.6 mph - N/A   Clear
11:51 PM 72.0 °F - 66.0 °F 81% 30.08 in 10.0 mi Calm Calm - N/A   Clear